Location: Hermaringen
(48.5952°N, 10.2585°E)
Time: 19:39:51
(UTC+00:00)

Altair - Pass Details

Date: 20 February 2026
Orbit: 1502 x 1682 km, 47.2° (Epoch: 10 March)

Event Time Altitude Azimuth Distance (km) Brightness Sun altitude
Exits shadow 06:15:02 - 268° (W) 4,705 9.4 -1.3°
Rises 06:15:12 0° 268° (W) 4,651 9.4 -1.3°
Reaches altitude 10° 06:18:11 10° 268° (W) 3,682 8.9 -0.8°
Maximum altitude 06:27:30 84° 182° (S) 1,566 7.7 0.7°
Drops below altitude 10° 06:37:11 10° 96° (E) 3,811 11.5 2.2°
Sets 06:40:20 0° 96° (E) 4,820 12.1 2.7°
